Tracking 27371 objects as of 7-Jun-2023
HD Live streaming from Space Station
objects crossing your sky now

INTELSAT 6B (PAS 6B)

Track INTELSAT 6B (PAS 6B) now!
INTELSAT 6B (PAS 6B) is classified as:


NORAD ID: 25585
Int'l Code: 1998-075A
Perigee: 36,038.6 km
Apogee: 36,182.6 km
Inclination: 10.6 °
Period: 1,452.3 minutes
Semi major axis: 42481 km
RCS: 21.1435 m2 (large)
Launch date: December 22, 1998
Source: United States (US)
Launch site: FRENCH GUIANA (FRGUI)

voice and video communcations; 32 Ku-band; South America.
Your satellite tracking list
Your tracking list is empty




NASA's NSSDC Master Catalog

Two Line Element Set (TLE):
1 25585U 98075A   23157.66450490  .00000065  00000-0  00000-0 0  9997
2 25585  10.5848  38.4705 0016958 123.4513 200.3739  0.99152067 89019
Source of the keplerian elements: AFSPC